Year,Month,Day,Hour,Minute,Value (Times are PST for temperature in C)
2006,02,20,11,06,4.00
2006,02,20,11,07,4.00
2006,02,20,11,08,4.10
2006,02,20,11,09,4.10
2006,02,20,11,10,4.20
2006,02,20,11,11,4.20
2006,02,20,11,12,4.20
2006,02,20,11,13,4.20
2006,02,20,11,14,4.30
2006,02,20,11,15,4.30
2006,02,20,11,16,4.40
2006,02,20,11,17,4.40
2006,02,20,11,18,4.40
2006,02,20,11,19,4.50
2006,02,20,11,20,4.50
2006,02,20,11,21,4.50
2006,02,20,11,22,4.50
2006,02,20,11,23,4.60
2006,02,20,11,24,4.60
2006,02,20,11,25,4.60
2006,02,20,11,26,4.60
2006,02,20,11,27,4.60
2006,02,20,11,28,4.60
2006,02,20,11,29,4.60
2006,02,20,11,30,4.60
2006,02,20,11,31,4.70
2006,02,20,11,32,4.70
2006,02,20,11,33,4.70
2006,02,20,11,34,4.70
2006,02,20,11,35,4.70
2006,02,20,11,36,4.60
2006,02,20,11,37,4.60
2006,02,20,11,38,4.60
2006,02,20,11,39,4.60
2006,02,20,11,40,4.60
2006,02,20,11,41,4.60
2006,02,20,11,42,4.60
2006,02,20,11,43,4.70
2006,02,20,11,44,4.70
2006,02,20,11,45,4.70
2006,02,20,11,46,4.80
2006,02,20,11,47,4.90
2006,02,20,11,48,4.90
2006,02,20,11,49,4.90
2006,02,20,11,50,4.90
2006,02,20,11,51,4.90
2006,02,20,11,52,4.90
2006,02,20,11,53,4.90
2006,02,20,11,54,4.90
2006,02,20,11,55,4.90
2006,02,20,11,56,4.90
2006,02,20,11,57,4.90
2006,02,20,11,58,4.90
2006,02,20,11,59,4.90
2006,02,20,12,00,4.90
2006,02,20,12,01,4.90
2006,02,20,12,02,4.90
2006,02,20,12,03,4.90
2006,02,20,12,04,4.90
2006,02,20,12,05,4.90
2006,02,20,12,06,4.90
2006,02,20,12,07,4.90
2006,02,20,12,08,4.80
2006,02,20,12,09,4.80
2006,02,20,12,10,4.90
2006,02,20,12,11,4.90
2006,02,20,12,12,4.90
2006,02,20,12,13,4.90
2006,02,20,12,14,4.90
2006,02,20,12,15,4.90
2006,02,20,12,16,4.90
2006,02,20,12,17,4.90
2006,02,20,12,18,4.90
2006,02,20,12,19,4.90
2006,02,20,12,20,4.90
2006,02,20,12,21,5.00
2006,02,20,12,22,5.10
2006,02,20,12,23,5.10
2006,02,20,12,24,5.10
2006,02,20,12,25,5.10
2006,02,20,12,26,5.10
2006,02,20,12,27,5.10
2006,02,20,12,28,5.20
2006,02,20,12,29,5.20
2006,02,20,12,30,5.30
2006,02,20,12,31,5.30
2006,02,20,12,32,5.30
2006,02,20,12,33,5.30
2006,02,20,12,34,5.30
2006,02,20,12,35,5.30
2006,02,20,12,36,5.30
2006,02,20,12,37,5.30
2006,02,20,12,38,5.40
2006,02,20,12,39,5.40
2006,02,20,12,40,5.40
2006,02,20,12,41,5.50
2006,02,20,12,42,5.50
2006,02,20,12,43,5.50
2006,02,20,12,44,5.60
2006,02,20,12,45,5.60
2006,02,20,12,46,5.60
2006,02,20,12,47,5.50
2006,02,20,12,48,5.50
2006,02,20,12,49,5.50
2006,02,20,12,50,5.50
2006,02,20,12,51,5.40
2006,02,20,12,52,5.40
2006,02,20,12,53,5.40
2006,02,20,12,54,5.40
2006,02,20,12,55,5.40
2006,02,20,12,56,5.40
2006,02,20,12,57,5.40
2006,02,20,12,58,5.40
2006,02,20,12,59,5.40
2006,02,20,13,00,5.40
2006,02,20,13,01,5.50
2006,02,20,13,02,5.50
2006,02,20,13,03,5.60
2006,02,20,13,04,5.60
2006,02,20,13,05,5.60
2006,02,20,13,06,5.70
2006,02,20,13,07,5.80
2006,02,20,13,08,5.80
2006,02,20,13,09,5.90
2006,02,20,13,10,6.00
2006,02,20,13,11,6.00
2006,02,20,13,12,6.10
2006,02,20,13,13,6.10
2006,02,20,13,14,6.20
2006,02,20,13,15,6.20
2006,02,20,13,16,6.20
2006,02,20,13,17,6.20
2006,02,20,13,18,6.20
2006,02,20,13,19,6.20
2006,02,20,13,20,6.20
2006,02,20,13,21,6.20
2006,02,20,13,22,6.20
2006,02,20,13,23,6.20
2006,02,20,13,24,6.20
2006,02,20,13,25,6.20
2006,02,20,13,26,6.20
2006,02,20,13,27,6.30
2006,02,20,13,28,6.30
2006,02,20,13,29,6.40
2006,02,20,13,30,6.40
2006,02,20,13,31,6.40
2006,02,20,13,32,6.40
2006,02,20,13,33,6.30
2006,02,20,13,34,6.30
2006,02,20,13,35,6.30
2006,02,20,13,36,6.30
2006,02,20,13,37,6.40
2006,02,20,13,38,6.40
2006,02,20,13,39,6.40
2006,02,20,13,40,6.50
2006,02,20,13,41,6.60
2006,02,20,13,42,6.60
2006,02,20,13,43,6.60
2006,02,20,13,44,6.60
2006,02,20,13,45,6.60
2006,02,20,13,46,6.70
2006,02,20,13,47,6.60
2006,02,20,13,48,6.60
2006,02,20,13,49,6.60
2006,02,20,13,50,6.60
2006,02,20,13,51,6.60
2006,02,20,13,52,6.60
2006,02,20,13,53,6.70
2006,02,20,13,54,6.70
2006,02,20,13,55,6.70
2006,02,20,13,56,6.60
2006,02,20,13,57,6.60
2006,02,20,13,58,6.60
2006,02,20,13,59,6.50
2006,02,20,14,00,6.40
2006,02,20,14,01,6.40
2006,02,20,14,02,6.30
2006,02,20,14,03,6.20
2006,02,20,14,04,6.10
2006,02,20,14,05,6.00
2006,02,20,14,06,6.00
2006,02,20,14,07,5.90
2006,02,20,14,08,5.80
2006,02,20,14,09,5.70
2006,02,20,14,10,5.70
2006,02,20,14,11,5.60
2006,02,20,14,12,5.50
2006,02,20,14,13,5.50
2006,02,20,14,14,5.50
2006,02,20,14,15,5.50
2006,02,20,14,16,5.50
2006,02,20,14,17,5.40
2006,02,20,14,18,5.40
2006,02,20,14,19,5.30
2006,02,20,14,20,5.30
2006,02,20,14,21,5.30
2006,02,20,14,22,5.30
2006,02,20,14,23,5.30
2006,02,20,14,24,5.30
2006,02,20,14,25,5.30
2006,02,20,14,26,5.30
2006,02,20,14,27,5.30
2006,02,20,14,28,5.20
2006,02,20,14,29,5.20
2006,02,20,14,30,5.20
2006,02,20,14,31,5.20
2006,02,20,14,32,5.10
2006,02,20,14,33,5.10
2006,02,20,14,34,5.10
2006,02,20,14,35,5.10
2006,02,20,14,36,5.10
2006,02,20,14,37,5.10
2006,02,20,14,38,5.10
2006,02,20,14,39,5.10
2006,02,20,14,40,5.10
2006,02,20,14,41,5.20
2006,02,20,14,42,5.20
2006,02,20,14,43,5.30
2006,02,20,14,44,5.30
2006,02,20,14,45,5.30
2006,02,20,14,46,5.40
2006,02,20,14,47,5.50
2006,02,20,14,48,5.50
2006,02,20,14,49,5.60
2006,02,20,14,50,5.60
2006,02,20,14,51,5.70
2006,02,20,14,52,5.70
2006,02,20,14,53,5.80
2006,02,20,14,54,5.90
2006,02,20,14,55,5.90
2006,02,20,14,56,6.00
2006,02,20,14,57,6.10
2006,02,20,14,58,6.10
2006,02,20,14,59,6.10
2006,02,20,15,00,6.20
2006,02,20,15,01,6.20
2006,02,20,15,02,6.30
2006,02,20,15,03,6.30
2006,02,20,15,04,6.40
2006,02,20,15,05,6.40
2006,02,20,15,06,6.40
2006,02,20,15,07,6.40
2006,02,20,15,08,6.40
2006,02,20,15,09,6.40
2006,02,20,15,10,6.40
2006,02,20,15,11,6.40
2006,02,20,15,12,6.40
2006,02,20,15,13,6.50
2006,02,20,15,14,6.60
2006,02,20,15,15,6.60
2006,02,20,15,16,6.60
2006,02,20,15,17,6.60
2006,02,20,15,18,6.60
2006,02,20,15,19,6.60
2006,02,20,15,20,6.60
2006,02,20,15,21,6.60
2006,02,20,15,22,6.60
2006,02,20,15,23,6.60
2006,02,20,15,24,6.60
2006,02,20,15,25,6.50
2006,02,20,15,26,6.40
2006,02,20,15,27,6.40
2006,02,20,15,28,6.40
2006,02,20,15,29,6.40
2006,02,20,15,30,6.40
2006,02,20,15,31,6.40
2006,02,20,15,32,6.40
2006,02,20,15,33,6.40
2006,02,20,15,34,6.40
2006,02,20,15,35,6.40
2006,02,20,15,36,6.40
2006,02,20,15,37,6.40
2006,02,20,15,38,6.40
2006,02,20,15,39,6.40
2006,02,20,15,40,6.40
2006,02,20,15,41,6.40
2006,02,20,15,42,6.40
2006,02,20,15,43,6.40
2006,02,20,15,44,6.40
2006,02,20,15,45,6.40
2006,02,20,15,46,6.40
2006,02,20,15,47,6.40
2006,02,20,15,48,6.40
2006,02,20,15,49,6.40
2006,02,20,15,50,6.40
2006,02,20,15,51,6.40
2006,02,20,15,52,6.40
2006,02,20,15,53,6.40
2006,02,20,15,54,6.50
2006,02,20,15,55,6.60
2006,02,20,15,56,6.60
2006,02,20,15,57,6.60
2006,02,20,15,58,6.60
2006,02,20,15,59,6.60
2006,02,20,16,00,6.60
2006,02,20,16,01,6.50
2006,02,20,16,02,6.40
2006,02,20,16,03,6.40
2006,02,20,16,04,6.30
2006,02,20,16,05,6.30
2006,02,20,16,06,6.20
2006,02,20,16,07,6.20
2006,02,20,16,08,6.20
2006,02,20,16,09,6.20
2006,02,20,16,10,6.20
2006,02,20,16,11,6.20
2006,02,20,16,12,6.20
2006,02,20,16,13,6.20
2006,02,20,16,14,6.20
2006,02,20,16,15,6.10
2006,02,20,16,16,6.10
2006,02,20,16,17,6.00
2006,02,20,16,18,6.00
2006,02,20,16,19,6.00
2006,02,20,16,20,6.00
2006,02,20,16,21,6.00
2006,02,20,16,22,6.00
2006,02,20,16,23,6.00
2006,02,20,16,24,6.00
2006,02,20,16,25,6.00
2006,02,20,16,26,6.00
2006,02,20,16,27,6.10
2006,02,20,16,28,6.10
2006,02,20,16,29,6.10
2006,02,20,16,30,6.10
2006,02,20,16,31,6.00
2006,02,20,16,32,6.00
2006,02,20,16,33,6.10
2006,02,20,16,34,6.10
2006,02,20,16,35,6.10
2006,02,20,16,36,6.10
2006,02,20,16,37,6.00
2006,02,20,16,38,6.10
2006,02,20,16,39,6.10
2006,02,20,16,40,6.10
2006,02,20,16,41,6.10
2006,02,20,16,42,6.10
2006,02,20,16,43,6.10
2006,02,20,16,44,6.10
2006,02,20,16,45,6.00
2006,02,20,16,46,6.00
2006,02,20,16,47,5.90
2006,02,20,16,48,5.90
2006,02,20,16,49,5.90
2006,02,20,16,50,5.80
2006,02,20,16,51,5.80
2006,02,20,16,52,5.70
2006,02,20,16,53,5.70
2006,02,20,16,54,5.70
2006,02,20,16,55,5.60
2006,02,20,16,56,5.60
2006,02,20,16,57,5.60
2006,02,20,16,58,5.50
2006,02,20,16,59,5.50
2006,02,20,17,00,5.50
2006,02,20,17,01,5.50
2006,02,20,17,02,5.50
2006,02,20,17,03,5.50
2006,02,20,17,04,5.50
2006,02,20,17,05,5.40
2006,02,20,17,06,5.40
2006,02,20,17,07,5.30
2006,02,20,17,08,5.30
2006,02,20,17,09,5.30
2006,02,20,17,10,5.30
2006,02,20,17,11,5.20
2006,02,20,17,12,5.20
2006,02,20,17,13,5.20
2006,02,20,17,14,5.10
2006,02,20,17,15,5.10
2006,02,20,17,16,5.10
2006,02,20,17,17,5.10
2006,02,20,17,18,5.10
2006,02,20,17,19,5.10
2006,02,20,17,20,5.10
2006,02,20,17,21,5.10
2006,02,20,17,22,5.10
2006,02,20,17,23,5.10
2006,02,20,17,24,5.10
2006,02,20,17,25,5.00
2006,02,20,17,26,4.90
2006,02,20,17,27,4.90
2006,02,20,17,28,4.90
2006,02,20,17,29,4.90
2006,02,20,17,30,4.90
2006,02,20,17,31,4.90
2006,02,20,17,32,4.90
2006,02,20,17,33,4.90
2006,02,20,17,34,4.90
2006,02,20,17,35,4.90
2006,02,20,17,36,4.90
2006,02,20,17,37,4.90
2006,02,20,17,38,4.90
2006,02,20,17,39,4.90
2006,02,20,17,40,4.90
2006,02,20,17,41,4.90
2006,02,20,17,42,4.90
2006,02,20,17,43,4.90
2006,02,20,17,44,4.80
2006,02,20,17,45,4.80
2006,02,20,17,46,4.80
2006,02,20,17,47,4.80
2006,02,20,17,48,4.80
2006,02,20,17,49,4.80
2006,02,20,17,50,4.80
2006,02,20,17,51,4.80
2006,02,20,17,52,4.80
2006,02,20,17,53,4.70
2006,02,20,17,54,4.70
2006,02,20,17,55,4.70
2006,02,20,17,56,4.70
2006,02,20,17,57,4.70
2006,02,20,17,58,4.70
2006,02,20,17,59,4.70
2006,02,20,18,00,4.70
2006,02,20,18,01,4.70
2006,02,20,18,02,4.70
2006,02,20,18,03,4.70
2006,02,20,18,04,4.70
2006,02,20,18,05,4.70
2006,02,20,18,06,4.60
2006,02,20,18,07,4.60
2006,02,20,18,08,4.60
2006,02,20,18,09,4.60
2006,02,20,18,10,4.60
2006,02,20,18,11,4.60
2006,02,20,18,12,4.60
2006,02,20,18,13,4.60
2006,02,20,18,14,4.60
2006,02,20,18,15,4.60
2006,02,20,18,16,4.60
2006,02,20,18,17,4.60
2006,02,20,18,18,4.60
2006,02,20,18,19,4.60
2006,02,20,18,20,4.60
2006,02,20,18,21,4.60
2006,02,20,18,22,4.60
2006,02,20,18,23,4.60
2006,02,20,18,24,4.60
2006,02,20,18,25,4.60
2006,02,20,18,26,4.60
2006,02,20,18,27,4.60
2006,02,20,18,28,4.50
2006,02,20,18,29,4.50
2006,02,20,18,30,4.50
2006,02,20,18,31,4.50
2006,02,20,18,32,4.50
2006,02,20,18,33,4.50
2006,02,20,18,34,4.50
2006,02,20,18,35,4.50
2006,02,20,18,36,4.50
2006,02,20,18,37,4.50
2006,02,20,18,38,4.50
2006,02,20,18,39,4.50
2006,02,20,18,40,4.50
2006,02,20,18,41,4.50
2006,02,20,18,42,4.50
2006,02,20,18,43,4.50
2006,02,20,18,44,4.50
2006,02,20,18,45,4.50
2006,02,20,18,46,4.50
2006,02,20,18,47,4.50
2006,02,20,18,48,4.50
2006,02,20,18,49,4.50
2006,02,20,18,50,4.50
2006,02,20,18,51,4.50
2006,02,20,18,52,4.50
2006,02,20,18,53,4.50
2006,02,20,18,54,4.40
2006,02,20,18,55,4.40
2006,02,20,18,56,4.40
2006,02,20,18,57,4.40
2006,02,20,18,58,4.40
2006,02,20,18,59,4.40
2006,02,20,19,00,4.40
2006,02,20,19,01,4.40
2006,02,20,19,02,4.40
2006,02,20,19,03,4.40
2006,02,20,19,04,4.40
2006,02,20,19,05,4.40
2006,02,20,19,06,4.40
2006,02,20,19,07,4.40
2006,02,20,19,08,4.40
2006,02,20,19,09,4.40
2006,02,20,19,10,4.40
2006,02,20,19,11,4.40
2006,02,20,19,12,4.30
2006,02,20,19,13,4.30
2006,02,20,19,14,4.30
2006,02,20,19,15,4.30
2006,02,20,19,16,4.30
2006,02,20,19,17,4.30
2006,02,20,19,18,4.30
2006,02,20,19,19,4.30
2006,02,20,19,20,4.30
2006,02,20,19,21,4.30
2006,02,20,19,22,4.30
2006,02,20,19,23,4.30
2006,02,20,19,24,4.30
2006,02,20,19,25,4.30
2006,02,20,19,26,4.30
2006,02,20,19,27,4.30
2006,02,20,19,28,4.30
2006,02,20,19,29,4.30
2006,02,20,19,30,4.30
2006,02,20,19,31,4.30
2006,02,20,19,32,4.30
2006,02,20,19,33,4.30
2006,02,20,19,34,4.30
2006,02,20,19,35,4.30
2006,02,20,19,36,4.30
2006,02,20,19,37,4.30
2006,02,20,19,38,4.30
2006,02,20,19,39,4.30
2006,02,20,19,40,4.20
2006,02,20,19,41,4.20
2006,02,20,19,42,4.20
2006,02,20,19,43,4.20
2006,02,20,19,44,4.20
2006,02,20,19,45,4.20
2006,02,20,19,46,4.20
2006,02,20,19,47,4.20
2006,02,20,19,48,4.20
2006,02,20,19,49,4.20
2006,02,20,19,50,4.20
2006,02,20,19,51,4.20
2006,02,20,19,52,4.20
2006,02,20,19,53,4.20
2006,02,20,19,54,4.20
2006,02,20,19,55,4.20
2006,02,20,19,56,4.20
2006,02,20,19,57,4.20
2006,02,20,19,58,4.20
2006,02,20,19,59,4.20
2006,02,20,20,00,4.20
2006,02,20,20,01,4.20
2006,02,20,20,02,4.20
2006,02,20,20,03,4.20
2006,02,20,20,04,4.20
2006,02,20,20,05,4.20
2006,02,20,20,06,4.20
2006,02,20,20,07,4.20
2006,02,20,20,08,4.20
2006,02,20,20,09,4.20
2006,02,20,20,10,4.20
2006,02,20,20,11,4.20
2006,02,20,20,12,4.10
2006,02,20,20,13,4.10
2006,02,20,20,14,4.10
2006,02,20,20,15,4.10
2006,02,20,20,16,4.10
2006,02,20,20,17,4.10
2006,02,20,20,18,4.10
2006,02,20,20,19,4.10
2006,02,20,20,20,4.10
2006,02,20,20,21,4.10
2006,02,20,20,22,4.10
2006,02,20,20,23,4.00
2006,02,20,20,24,4.00
2006,02,20,20,25,4.00
2006,02,20,20,26,4.00
2006,02,20,20,27,4.00
2006,02,20,20,28,4.00
2006,02,20,20,29,4.00
2006,02,20,20,30,3.90
2006,02,20,20,31,3.90
2006,02,20,20,32,3.80
2006,02,20,20,33,3.80
2006,02,20,20,34,3.80
2006,02,20,20,35,3.80
2006,02,20,20,36,3.80
2006,02,20,20,37,3.80
2006,02,20,20,38,3.70
2006,02,20,20,39,3.70
2006,02,20,20,40,3.70
2006,02,20,20,41,3.60
2006,02,20,20,42,3.60
2006,02,20,20,43,3.60
2006,02,20,20,44,3.50
2006,02,20,20,45,3.50
2006,02,20,20,46,3.50
2006,02,20,20,47,3.50
2006,02,20,20,48,3.50
2006,02,20,20,49,3.40
2006,02,20,20,50,3.40
2006,02,20,20,51,3.40
2006,02,20,20,52,3.40
2006,02,20,20,53,3.40
2006,02,20,20,54,3.40
2006,02,20,20,55,3.40
2006,02,20,20,56,3.40
2006,02,20,20,57,3.40
2006,02,20,20,58,3.30
2006,02,20,20,59,3.30
2006,02,20,21,00,3.30
2006,02,20,21,01,3.30
2006,02,20,21,02,3.30
2006,02,20,21,03,3.30
2006,02,20,21,04,3.30
2006,02,20,21,05,3.30
2006,02,20,21,06,3.30
2006,02,20,21,07,3.30
2006,02,20,21,08,3.30
2006,02,20,21,09,3.30
2006,02,20,21,10,3.30
2006,02,20,21,11,3.30
2006,02,20,21,12,3.30
2006,02,20,21,13,3.30
2006,02,20,21,14,3.30
2006,02,20,21,15,3.30
2006,02,20,21,16,3.30
2006,02,20,21,17,3.30
2006,02,20,21,18,3.30
2006,02,20,21,19,3.30
2006,02,20,21,20,3.30
2006,02,20,21,21,3.30
2006,02,20,21,22,3.20
2006,02,20,21,23,3.20
2006,02,20,21,24,3.20
2006,02,20,21,25,3.20
2006,02,20,21,26,3.20
2006,02,20,21,27,3.20
2006,02,20,21,28,3.20
2006,02,20,21,29,3.20
2006,02,20,21,30,3.20
2006,02,20,21,31,3.20
2006,02,20,21,32,3.20
2006,02,20,21,33,3.20
2006,02,20,21,34,3.10
2006,02,20,21,35,3.10
2006,02,20,21,36,3.10
2006,02,20,21,37,3.10
2006,02,20,21,38,3.10
2006,02,20,21,39,3.10
2006,02,20,21,40,3.10
2006,02,20,21,41,3.10
2006,02,20,21,42,3.10
2006,02,20,21,43,3.10
2006,02,20,21,44,3.10
2006,02,20,21,45,3.10
2006,02,20,21,46,3.10
2006,02,20,21,47,3.10
2006,02,20,21,48,3.10
2006,02,20,21,49,3.10
2006,02,20,21,50,3.10
2006,02,20,21,51,3.10
2006,02,20,21,52,3.10
2006,02,20,21,53,3.10
2006,02,20,21,54,3.10
2006,02,20,21,55,3.10
2006,02,20,21,56,3.10
2006,02,20,21,57,3.10
2006,02,20,21,58,3.10
2006,02,20,21,59,3.00
2006,02,20,22,00,2.90
2006,02,20,22,01,2.90
2006,02,20,22,02,2.90
2006,02,20,22,03,2.90
2006,02,20,22,04,2.90
2006,02,20,22,05,2.90
2006,02,20,22,06,2.90
2006,02,20,22,07,2.90
2006,02,20,22,08,2.90
2006,02,20,22,09,2.90
2006,02,20,22,10,2.90
2006,02,20,22,11,2.90
2006,02,20,22,12,2.90
2006,02,20,22,13,2.90
2006,02,20,22,14,2.90
2006,02,20,22,15,2.90
2006,02,20,22,16,2.90
2006,02,20,22,17,2.90
2006,02,20,22,18,2.90
2006,02,20,22,19,2.90
2006,02,20,22,20,2.90
2006,02,20,22,21,2.90
2006,02,20,22,22,2.90
2006,02,20,22,23,2.90
2006,02,20,22,24,2.90
2006,02,20,22,25,2.90
2006,02,20,22,26,2.90
2006,02,20,22,27,2.90
2006,02,20,22,28,2.90
2006,02,20,22,29,2.90
2006,02,20,22,30,2.90
2006,02,20,22,31,2.90
2006,02,20,22,32,2.90
2006,02,20,22,33,2.90
2006,02,20,22,34,2.90
2006,02,20,22,35,2.90
2006,02,20,22,36,2.90
2006,02,20,22,37,2.90
2006,02,20,22,38,2.80
2006,02,20,22,39,2.80
2006,02,20,22,40,2.80
2006,02,20,22,41,2.80
2006,02,20,22,42,2.80
2006,02,20,22,43,2.80
2006,02,20,22,44,2.80
2006,02,20,22,45,2.80
2006,02,20,22,46,2.80
2006,02,20,22,47,2.80
2006,02,20,22,48,2.80
2006,02,20,22,49,2.80
2006,02,20,22,50,2.80
2006,02,20,22,51,2.80
2006,02,20,22,52,2.80
2006,02,20,22,53,2.80
2006,02,20,22,54,2.80
2006,02,20,22,55,2.70
2006,02,20,22,56,2.70
2006,02,20,22,57,2.70
2006,02,20,22,58,2.70
2006,02,20,22,59,2.70
2006,02,20,23,00,2.70
2006,02,20,23,01,2.70
2006,02,20,23,02,2.70
2006,02,20,23,03,2.70
2006,02,20,23,04,2.70
2006,02,20,23,05,2.70
2006,02,20,23,06,2.70
2006,02,20,23,07,2.70
2006,02,20,23,08,2.70
2006,02,20,23,09,2.70
2006,02,20,23,10,2.70
2006,02,20,23,11,2.80
2006,02,20,23,12,2.80
2006,02,20,23,13,2.80
2006,02,20,23,14,2.80
2006,02,20,23,15,2.80
2006,02,20,23,16,2.80
2006,02,20,23,17,2.80
2006,02,20,23,18,2.80
2006,02,20,23,19,2.80
2006,02,20,23,20,2.80
2006,02,20,23,21,2.80
2006,02,20,23,22,2.80
2006,02,20,23,23,2.80
2006,02,20,23,24,2.80
2006,02,20,23,25,2.80
2006,02,20,23,26,2.80
2006,02,20,23,27,2.80
2006,02,20,23,28,2.80
2006,02,20,23,29,2.80
2006,02,20,23,30,2.80
2006,02,20,23,31,2.80
2006,02,20,23,32,2.80
2006,02,20,23,33,2.80
2006,02,20,23,34,2.80
2006,02,20,23,35,2.80
2006,02,20,23,36,2.80
2006,02,20,23,37,2.80
2006,02,20,23,38,2.80
2006,02,20,23,39,2.80
2006,02,20,23,40,2.80
2006,02,20,23,41,2.80
2006,02,20,23,42,2.80
2006,02,20,23,43,2.80
2006,02,20,23,44,2.80
2006,02,20,23,45,2.80
2006,02,20,23,46,2.80
2006,02,20,23,47,2.80
2006,02,20,23,48,2.80
2006,02,20,23,49,2.70
2006,02,20,23,50,2.70
2006,02,20,23,51,2.70
2006,02,20,23,52,2.70
2006,02,20,23,53,2.70
2006,02,20,23,54,2.70
2006,02,20,23,55,2.70
2006,02,20,23,56,2.70
2006,02,20,23,57,2.70
2006,02,20,23,58,2.70
2006,02,20,23,59,2.70
